Tracking 23611 objects as of 17-Sep-2021
HD Live streaming from Space Station
objects crossing your sky now
Track INSPIRATION-4

ST5-A

Track ST5-A now!
10-day predictions
ST5-A is classified as:


NORAD ID: 28980
Int'l Code: 2006-008A
Perigee: 308.8 km
Apogee: 3,631.8 km
Inclination: 105.6 °
Period: 126.4 minutes
Semi major axis: 8341 km
RCS: 0.3025 m2 (medium)
Launch date: March 22, 2006
Source: United States (US)
Launch site: Pegasus launched from Western Range Air Space (WRAS)
aabbcc
Your satellite tracking list
Your tracking list is empty




NASA's NSSDC Master Catalog

Two Line Element Set (TLE):
1 28980U 06008A   21259.45145618  .00002738  28464-5  16253-3 0  9993
2 28980 105.5765 277.3927 1991861 271.5570  65.9697 11.39601549618946
Source of the keplerian elements: AFSPC